Regional Weather Roundup
Issued by NWS Sioux Falls, SD

Home | Current Version | Previous Version | Graphics & Text | Print | Product List | Glossary On
Versions: 1 2 3 4 5 6 7 8 9 10 11 12 13 14 15 16 17 18 19 20 21 22 23 24 25 26 27 28 29 30 31 32 33 34 35 36 37 38 39 40 41 42 43 44 45 46 47 48 49 50
000
ASUS43 KFSD 252202
RWRFSD

WEATHER ROUNDUP FOR SE SOUTH DAKOTA/SW MINNESOTA/NW IOWA
NATIONAL WEATHER SERVICE SIOUX FALLS SD
400 PM CST THU DEC 25 2014

NOTE: "FAIR" INDICATES FEW OR NO CLOUDS BELOW 12,000 FEET WITH NO
SIGNIFICANT WEATHER AND OR OBSTRUCTIONS TO VISIBILITY.


SDZ038>040-050-052>070-252300-
SOUTHEAST SOUTH DAKOTA

CITY           SKY/WX    TMP DP  RH WIND       PRES   REMARKS
CHAMBERLAIN    LGT SNOW  28  26  91 N15G24    29.73R WCI  17
HURON          LGT SNOW  28  25  88 N15G25    29.76R FOG     WCI  16
MADISON        CLOUDY    32  32 100 NE18      29.69R WCI  20
MITCHELL         N/A     33  30  88 N18       29.72R WCI  22
SIOUX FALLS    CLOUDY    33  28  81 NE18      29.68R WCI  22
WINNER         LGT SNOW  30  27  88 N21       29.73R FOG     WCI  17
YANKTON        CLOUDY    36  28  75 NE15      29.67R
$$

MNZ071-072-080-081-089-090-097-098-252300-
SOUTHWEST MINNESOTA

CITY           SKY/WX    TMP DP  RH WIND       PRES   REMARKS
FAIRMONT       CLOUDY    34  28  80 E7        29.72R WCI  28
JACKSON        CLOUDY    34  30  86 NE7       29.71  WCI  28
LUVERNE        CLOUDY    34  30  86 NE13G22   29.70R WCI  25
MARSHALL       CLOUDY    30  28  93 NE10      29.75R WCI  21
MONTEVIDEO     MOCLDY    30  30 100 N12       29.78R WCI  21
PIPESTONE      CLOUDY    30  30 100 NE15G23   29.69R FOG     WCI  19
REDWOOD FALLS  CLOUDY    33  30  88 N5        29.75R FOG     WCI  29
TRACY          CLOUDY    32  31  98 N12       29.74R FOG     WCI  23
WINDOM         CLOUDY    32  30  93 N10       29.72R WCI  24
WORTHINGTON    CLOUDY    32 -17  11 NE13      29.70R WCI  22
$$

IAZ001>003-012>014-020>022-031-032-NEZ013-014-SDZ071-252300-
NORTHWEST IOWA

CITY           SKY/WX    TMP DP  RH WIND       PRES   REMARKS
CHEROKEE       CLEAR     38  33  83 E6        29.66R
DENISON        CLEAR     46  36  66 S9        29.62R
ESTHERVILLE    CLOUDY    34  30  85 SE8       29.70R WCI  27
ORANGE CITY    PTCLDY    39  30  70 E7        29.66R
SIOUX CITY     CLEAR     44  33  65 SE6       29.64R
SPENCER        MOCLDY    36  29  75 E9        29.68R
$$

ABBREVIATIONS USED IN REMARKS
   TC - TEMPERATURE IN CELSIUS
  WCI - WIND CHILL INDEX
   HX - HEAT INDEX
  VSB - VISIBILITY




USA.gov is the U.S. government's official web portal to all federal, state and local government web resources and services.